This demonstration page uses our WeatherBlox Daily Observations layout. Learn more.

Left ArrowRight Arrow

Hourly Observations for May 3, 2015

Temp ( °F °C ) Dew Point ( °F °C ) Humidity (%) Winds ( mph kmh ) Pressure ( in mb ) Visibility ( mi km ) Precip ( " mm )
12:53 am 00:53 Clear 67 19.4 44 6.7 44 44 SE 13 20 29.80 1009 10 16 0.00 0.00
1:53 am 01:53 Clear 65 18.3 44 6.7 47 47 SE 13 20 29.79 1009 10 16 0.00 0.00
2:53 am 02:53 Clear 62 16.7 43 6.1 50 50 SSE 8 13 29.79 1009 10 16 0.00 0.00
3:53 am 03:53 Clear 58 14.4 43 6.1 58 58 SE 6 9 29.79 1009 10 16 0.00 0.00
4:53 am 04:53 Clear 60 15.6 43 6.1 53 53 SE 12 19 29.78 1008 10 16 0.00 0.00
5:53 am 05:53 Clear 59 15 44 6.7 58 58 SE 13 20 29.76 1008 10 16 0.00 0.00
6:53 am 06:53 Clear 58 14.4 44 6.7 60 60 SE 10 17 29.77 1008 10 16 0.00 0.00
7:53 am 07:53 Sunny 55 12.8 44 6.7 67 67 SE 9 15 29.81 1010 10 16 0.00 0.00
8:53 am 08:53 Sunny 62 16.7 47 8.3 58 58 SE 15 24 29.82 1010 10 16 0.00 0.00
9:53 am 09:53 Sunny 66 18.9 48 8.9 52 52 SE 13 20 29.83 1010 10 16 0.00 0.00
10:53 am 10:53 Sunny 74 23.3 49 9.4 41 41 ESE 10 17 29.82 1010 10 16 0.00 0.00
11:53 am 11:53 Sunny 79 26.1 49 9.4 35 35 SSE 9 15 29.82 1010 10 16 0.00 0.00
12:53 pm 12:53 Sunny 80 26.7 50 10 35 35 ESE 9 15 29.80 1009 10 16 0.00 0.00
1:53 pm 13:53 Sunny 85 29.4 50 10 30 30 ESE 12 19 29.78 1009 10 16 0.00 0.00
2:53 pm 14:53 Sunny 87 30.6 49 9.4 27 27 ESE 12 19 29.76 1008 10 16 0.00 0.00
3:53 pm 15:53 Sunny 89 31.7 45 7.2 22 22 SE 15 24 29.73 1007 10 16 0.00 0.00
4:53 pm 16:53 Sunny 88 31.1 45 7.2 22 22 ESE 17 28 29.70 1006 10 16 0.00 0.00
5:53 pm 17:53 Sunny 85 29.4 48 8.9 28 28 SSE 20 31 29.71 1006 10 16 0.00 0.00
6:53 pm 18:53 Sunny 82 27.8 50 10 33 33 SSE 17 28 29.73 1007 10 16 0.00 0.00
7:21 pm 19:21 Partly Cloudy 74 23.3 47 8.3 38 38 SW 14 22 29.74 1007 10 16 0.00 0.00
7:53 pm 19:53 Cloudy with Light Rain 74 23.3 48 8.9 40 40 WSW 20 31 29.79 1009 10 16 0.00 0.03
8:33 pm 20:33 Cloudy 77 25 42 5.6 29 29 S 15 24 29.74 1007 10 16 0.00 0.03
8:53 pm 20:53 Cloudy 74 23.3 46 7.8 37 37 S 13 20 29.82 1010 10 16 0.00 0.03
9:12 pm 21:12 Mostly Cloudy 73 23 46 8 38 38 SE 17 28 29.74 1007 10 16 0.00 0.00
9:53 pm 21:53 Clear 77 25 40 4.4 26 26 SE 15 24 29.77 1008 10 16 0.00 0.00
10:53 pm 22:53 Mostly Clear 72 22.2 55 12.8 55 55 SE 20 31 29.79 1009 10 16 0.00 0.00
11:53 pm 23:53 Clear 70 21.1 55 12.8 59 59 SE 17 28 29.77 1008 10 16 0.00 0.00

Powered by AerisWeather